Allentown, PA

11:52 AM EDT on July 23, 2017 (GMT -0400)
Lehigh Valley International

Weather History for KABE - September, 2012

Change the Weather History Date:

Monday, September 3, 2012

  Actual Average Record
Temperature  
Mean Temperature 72 °F 68 °F  
Max Temperature 75 °F 79 °F 99 °F (1953)
Min Temperature 68 °F 58 °F 41 °F (1967)
Degree Days  
Heating Degree Days 0 1  
Month to date heating degree days 0 3  
Since 1 July heating degree days 1 14  
Cooling Degree Days 7 4  
Month to date cooling degree days 28 14  
Year to date cooling degree days 979 693  
Growing Degree Days 22 (Base 50)    
Moisture  
Dew Point 69 °F    
Average Humidity 91    
Maximum Humidity 100    
Minimum Humidity 82    
Precipitation  
Precipitation 0.41 in 0.13 in 1.32 in (1966)
Month to date precipitation 0.43 0.37  
Year to date precipitation 26.25 30.14  
Snow  
Snow 0.00 in 0.00 in 0.00 in (2002)
Month to date snowfall 0.0 0.0  
Since 1 July snowfall 0.0 0.0  
Since 1 September snowfall 0.0 0.0  
Snow Depth 0.00 in    
Sea Level Pressure  
Sea Level Pressure 30.10 in    
Wind  
Wind Speed 7 mph (East)    
Max Wind Speed 13 mph    
Max Gust Speed 18 mph    
Visibility 5 miles    
Events Rain    
T = Trace of Precipitation, MM = Missing Value Source: NWS Daily Summary

Daily Weather History Graph

Daily Weather History Graph

Search for Another Location

Airport or City:

Trip Planner

Search our weather history database for the weather conditions in past years. The results will help you decide how hot, cold, wet, or windy it might be!

Date:

Astronomy

Sep. 03, 2012 Rise Set
Actual Time 6:31 AM EDT 7:29 PM EDT
Civil Twilight 6:03 AM EDT 7:57 PM EDT
Nautical Twilight 5:30 AM EDT 8:30 PM EDT
Astronomical Twilight 4:55 AM EDT 9:05 PM EDT
Moon 8:46 PM EDT (9/3) 9:38 AM EDT (9/3)
Length of Visible Light 13h 54m
Length of Day
12h 58m
Waning Gibbous, 90% of the Moon is Illuminated
Sep 3
Waning Gibbous
Sep 8
Last Quarter
Sep 15
New
Sep 22
First Quarter
Sep 29
Full

Hourly Weather History & Observations

Time (EDT) Temp. Dew Point Humidity Pressure Visibility Wind Dir Wind Speed Gust Speed Precip Events Conditions
12:51 AM 69.1 °F 66.9 °F 93% 30.07 in 3.0 mi ENE 4.6 mph - N/A   Scattered Clouds
1:51 AM 69.1 °F 66.9 °F 93% 30.06 in 3.0 mi ENE 5.8 mph - N/A   Mostly Cloudy
1:59 AM 69.8 °F 68.0 °F 94% 30.07 in 3.0 mi ENE 6.9 mph - N/A   Mostly Cloudy
2:37 AM 69.8 °F 68.0 °F 94% 30.07 in 3.0 mi NE 5.8 mph - N/A   Overcast
2:51 AM 70.0 °F 68.0 °F 93% 30.06 in 4.0 mi ENE 8.1 mph - N/A   Overcast
3:27 AM 71.6 °F 69.8 °F 94% 30.07 in 4.0 mi East 6.9 mph - 0.00 in Rain Light Rain
3:39 AM 71.6 °F 69.8 °F 94% 30.07 in 4.0 mi ENE 5.8 mph - 0.00 in   Overcast
3:51 AM 71.1 °F 69.1 °F 93% 30.07 in 4.0 mi ENE 5.8 mph - 0.00 in   Overcast
4:51 AM 71.1 °F 69.1 °F 93% 30.08 in 2.5 mi East 6.9 mph - 0.01 in Rain Light Rain
5:17 AM 71.6 °F 69.8 °F 94% 30.08 in 3.0 mi East 5.8 mph - 0.02 in Rain Light Rain
5:25 AM 71.6 °F 69.8 °F 94% 30.09 in 4.0 mi East 5.8 mph - 0.02 in Rain Light Rain
5:51 AM 71.1 °F 69.1 °F 93% 30.08 in 4.0 mi ENE 5.8 mph - 0.03 in   Overcast
6:35 AM 69.8 °F 69.8 °F 100% 30.10 in 3.0 mi NE 4.6 mph - N/A   Overcast
6:51 AM 70.0 °F 69.1 °F 97% 30.09 in 3.0 mi East 3.5 mph - N/A   Overcast
7:36 AM 71.6 °F 69.8 °F 94% 30.11 in 2.5 mi NE 5.8 mph - N/A   Overcast
7:51 AM 71.1 °F 69.1 °F 93% 30.11 in 2.5 mi ENE 5.8 mph - N/A   Overcast
7:58 AM 71.6 °F 69.8 °F 94% 30.11 in 3.0 mi ENE 6.9 mph - N/A   Overcast
8:18 AM 71.6 °F 69.8 °F 94% 30.11 in 3.0 mi ENE 5.8 mph - N/A   Overcast
8:51 AM 71.1 °F 69.1 °F 93% 30.11 in 3.0 mi ENE 6.9 mph - 0.00 in Rain Light Rain
9:00 AM 71.6 °F 69.8 °F 94% 30.12 in 2.0 mi East 6.9 mph - 0.00 in Rain Light Rain
9:09 AM 71.6 °F 69.8 °F 94% 30.12 in 3.0 mi East 5.8 mph - 0.00 in Rain Light Rain
9:51 AM 73.0 °F 70.0 °F 90% 30.12 in 5.0 mi East 8.1 mph - 0.00 in   Overcast
10:34 AM 73.4 °F 69.8 °F 88% 30.12 in 9.0 mi East 8.1 mph - 0.00 in   Overcast
10:51 AM 75.0 °F 71.1 °F 87% 30.12 in 10.0 mi East 6.9 mph - 0.00 in   Overcast
11:51 AM 75.0 °F 70.0 °F 84% 30.11 in 10.0 mi ESE 6.9 mph - N/A   Overcast
12:51 PM 73.9 °F 69.1 °F 85% 30.12 in 3.0 mi ESE 8.1 mph - 0.00 in Rain Rain
12:56 PM 73.4 °F 69.8 °F 88% 30.12 in 2.0 mi SE 4.6 mph - 0.02 in Rain Rain
1:04 PM 73.4 °F 69.8 °F 88% 30.12 in 1.8 mi SE 6.9 mph - 0.03 in Rain Rain
1:23 PM 73.4 °F 69.8 °F 88% 30.12 in 1.8 mi SE 4.6 mph - 0.07 in Rain Light Rain
1:30 PM 73.4 °F 69.8 °F 88% 30.13 in 2.0 mi ESE 5.8 mph - 0.08 in Rain Rain
1:51 PM 73.0 °F 70.0 °F 90% 30.12 in 2.0 mi East 5.8 mph - 0.21 in Rain Rain
2:04 PM 73.4 °F 71.6 °F 94% 30.12 in 2.0 mi East 8.1 mph - 0.02 in Rain Rain
2:51 PM 72.0 °F 70.0 °F 93% 30.10 in 2.0 mi East 8.1 mph - 0.07 in Rain Light Rain
2:58 PM 71.6 °F 69.8 °F 94% 30.11 in 8.0 mi East 6.9 mph - 0.00 in   Overcast
3:23 PM 71.6 °F 69.8 °F 94% 30.10 in 9.0 mi East 8.1 mph - 0.00 in Rain Light Rain
3:33 PM 71.6 °F 69.8 °F 94% 30.10 in 9.0 mi ENE 8.1 mph - 0.00 in Rain Light Rain
3:51 PM 71.1 °F 69.1 °F 93% 30.09 in 5.0 mi East 8.1 mph - 0.00 in Rain Light Rain
4:51 PM 71.1 °F 68.0 °F 90% 30.10 in 4.0 mi East 6.9 mph - 0.01 in Rain Light Rain
4:56 PM 71.6 °F 68.0 °F 88% 30.10 in 2.5 mi East 9.2 mph - 0.01 in Rain Rain
5:06 PM 71.6 °F 68.0 °F 88% 30.10 in 6.0 mi ENE 9.2 mph - 0.02 in Rain Light Rain
5:36 PM 69.8 °F 68.0 °F 94% 30.10 in 2.5 mi ENE 8.1 mph - 0.04 in Rain Rain
5:51 PM 70.0 °F 68.0 °F 93% 30.09 in 2.5 mi ENE 8.1 mph - 0.06 in Rain Light Rain
6:09 PM 69.8 °F 68.0 °F 94% 30.09 in 8.0 mi East 8.1 mph - 0.01 in Rain Light Rain
6:51 PM 70.0 °F 66.9 °F 90% 30.08 in 10.0 mi East 8.1 mph - 0.01 in   Overcast
7:32 PM 69.8 °F 66.2 °F 88% 30.08 in 10.0 mi East 10.4 mph - N/A   Overcast
7:51 PM 70.0 °F 66.9 °F 90% 30.06 in 10.0 mi East 8.1 mph - N/A   Overcast
8:51 PM 70.0 °F 68.0 °F 93% 30.07 in 10.0 mi East 8.1 mph - N/A   Overcast
9:20 PM 69.8 °F 68.0 °F 94% 30.09 in 6.0 mi ESE 8.1 mph - N/A   Overcast
9:51 PM 70.0 °F 68.0 °F 93% 30.08 in 10.0 mi East 6.9 mph - N/A   Overcast
10:51 PM 70.0 °F 69.1 °F 97% 30.09 in 9.0 mi East 8.1 mph - N/A   Overcast
11:51 PM 71.1 °F 69.1 °F 93% 30.09 in 5.0 mi Calm Calm - N/A   Overcast